Indianapolis, IN

5:53 PM EDT on September 19, 2019 (GMT -0400)
Indianapolis International

Weather History for KIND - July, 2019

Change the Weather History Date:

Wednesday, July 31, 2019

  Actual Average Record
Temperature  
Mean Temperature 74 °F 75 °F  
Max Temperature 82 °F 84 °F 98 °F (1913)
Min Temperature 65 °F 66 °F 49 °F (1895)
Degree Days  
Heating Degree Days 0 0  
Month to date heating degree days 0 0  
Since 1 June heating degree days 9 17  
Since 1 July heating degree days 0 1  
Cooling Degree Days 9 10  
Month to date cooling degree days 415 323  
Year to date cooling degree days 729 633  
Since 1 June cooling degree days 618 549  
Growing Degree Days 22 (Base 50)    
Moisture  
Dew Point 57 °F    
Average Humidity 58    
Maximum Humidity 73    
Minimum Humidity 42    
Precipitation  
Precipitation 0.00 in 0.12 in 2.84 in (1958)
Month to date precipitation 3.86 4.55  
Year to date precipitation 33.01 26.20  
Snow  
Snow 0.00 in 0.00 in 0.00 in ()
Month to date snowfall 0.0 0.0  
Since 1 June snowfall 0.0 0.0  
Since 1 July snowfall 0.0 0.0  
Snow Depth 0.00 in    
Sea Level Pressure  
Sea Level Pressure 30.09 in    
Wind  
Wind Speed 8 mph (North)    
Max Wind Speed 14 mph    
Max Gust Speed 19 mph    
Visibility 10 miles    
Events      
T = Trace of Precipitation, MM = Missing Value Source: NWS Daily Summary

Daily Weather History Graph

Daily Weather History Graph

Search for Another Location

Airport or City:

Astronomy

Jul. 31, 2019 Rise Set
Actual Time 6:43 AM EDT 8:59 PM EDT
Civil Twilight 6:12 AM EDT 9:29 PM EDT
Nautical Twilight 5:35 AM EDT 10:06 PM EDT
Astronomical Twilight 4:54 AM EDT 10:47 PM EDT
Moon 5:55 AM EDT (7/31) 8:58 PM EDT (7/31)
Length of Visible Light 15h 16m
Length of Day
14h 16m
Waning Crescent, 0% of the Moon is Illuminated
Jul 31
Waning Crescent
Jul 31
New
Aug 7
First Quarter
Aug 15
Full
Aug 23
Last Quarter

Hourly Weather History & Observations

Time (EDT) Temp. Heat Index Dew Point Humidity Pressure Visibility Wind Dir Wind Speed Gust Speed Precip Events Conditions
12:54 AM 73.0 °F - 64.0 °F 73% 30.04 in 10.0 mi NNE 11.5 mph - N/A   Mostly Cloudy
1:54 AM 71.1 °F - 63.0 °F 75% 30.05 in 10.0 mi North 10.4 mph - N/A   Scattered Clouds
2:54 AM 70.0 °F - 61.0 °F 73% 30.05 in 6.0 mi NNE 10.4 mph - N/A   Haze
3:54 AM 69.1 °F - 60.1 °F 73% 30.05 in 7.0 mi NNE 8.1 mph - N/A   Scattered Clouds
4:54 AM 66.9 °F - 57.0 °F 70% 30.06 in 10.0 mi NNE 10.4 mph - N/A   Scattered Clouds
5:54 AM 66.0 °F - 55.0 °F 68% 30.06 in 10.0 mi NNE 8.1 mph - N/A   Scattered Clouds
6:54 AM 64.9 °F - 54.0 °F 68% 30.09 in 10.0 mi North 8.1 mph - N/A   Partly Cloudy
7:54 AM 66.0 °F - 54.0 °F 65% 30.10 in 10.0 mi NNE 9.2 mph - N/A   Partly Cloudy
8:54 AM 69.1 °F - 54.0 °F 58% 30.11 in 10.0 mi North 9.2 mph - N/A   Partly Cloudy
9:54 AM 72.0 °F - 54.0 °F 53% 30.12 in 10.0 mi NNE 9.2 mph - N/A   Partly Cloudy
10:54 AM 73.9 °F - 55.9 °F 53% 30.12 in 10.0 mi North 8.1 mph - N/A   Partly Cloudy
11:54 AM 75.9 °F - 57.9 °F 54% 30.13 in 10.0 mi WNW 8.1 mph - N/A   Partly Cloudy
12:54 PM 78.1 °F - 59.0 °F 52% 30.12 in 10.0 mi NNW 6.9 mph - N/A   Partly Cloudy
1:54 PM 78.1 °F - 59.0 °F 52% 30.12 in 10.0 mi NNW 8.1 mph - N/A   Partly Cloudy
2:54 PM 79.0 °F - 57.9 °F 48% 30.11 in 10.0 mi West 6.9 mph - N/A   Scattered Clouds
3:54 PM 79.0 °F - 57.9 °F 48% 30.09 in 10.0 mi WNW 5.8 mph 17.3 mph N/A   Partly Cloudy
4:54 PM 80.1 °F 80.4 °F 57.0 °F 45% 30.09 in 10.0 mi WNW 8.1 mph - N/A   Partly Cloudy
5:54 PM 81.0 °F 80.8 °F 55.9 °F 42% 30.09 in 10.0 mi NW 5.8 mph - N/A   Partly Cloudy
6:54 PM 80.1 °F 80.2 °F 55.9 °F 43% 30.07 in 10.0 mi NNW 8.1 mph - N/A   Partly Cloudy
7:54 PM 78.1 °F - 55.9 °F 46% 30.07 in 10.0 mi North 10.4 mph - N/A   Partly Cloudy
8:54 PM 75.0 °F - 57.0 °F 53% 30.08 in 10.0 mi North 9.2 mph - N/A   Partly Cloudy
9:54 PM 73.0 °F - 57.0 °F 57% 30.08 in 10.0 mi North 6.9 mph - N/A   Partly Cloudy
10:54 PM 71.1 °F - 57.9 °F 63% 30.10 in 10.0 mi North 4.6 mph - N/A   Partly Cloudy
11:54 PM 70.0 °F - 57.9 °F 65% 30.11 in 10.0 mi North 4.6 mph - N/A   Partly Cloudy